When you browse on this site, cookies collect data to enhance your experience and personalize the content and advertising you see.
Visit our Privacy Policy to learn more. By continuing to use the site, you agree to this use of cookies and data.
  • In Hungary
  • List of Countries
  • For 7 days
  • Water Temperature
  • Satellite Maps
  • Weather Map
  • News
  • Weather Widgets
  • user-avatar
    Login

    Hourly Weather Ibipora

    Today, 21 November, Wednesday

    Time Temperature Precipitation Wind Pressure Humidity
    00:00 +19°C° 0 mm 4 mps 725 mmHg 76%
    01:00 +19°C° 0 mm 4 mps 725 mmHg 77%
    02:00 +18°C° 0 mm 4 mps 725 mmHg 79%
    03:00 +18°C° 0 mm 4 mps 725 mmHg 80%
    04:00 +17°C° 0 mm 4 mps 725 mmHg 81%
    05:00 +17°C° 0 mm 4 mps 725 mmHg 82%
    06:00 +17°C° 0 mm 4 mps 725 mmHg 83%
    07:00 +19°C° 0 mm 4 mps 725 mmHg 78%
    08:00 +21°C° 0 mm 4 mps 725 mmHg 72%
    09:00 +23°C° 0 mm 4 mps 726 mmHg 67%
    10:00 +26°C° 0 mm 4 mps 726 mmHg 63%
    11:00 +28°C° 0 mm 4 mps 725 mmHg 59%
    12:00 +30°C° 0 mm 4 mps 725 mmHg 54%
    13:00 +30°C° 0 mm 4 mps 724 mmHg 55%
    14:00 +30°C° 0 mm 4 mps 724 mmHg 55%
    15:00 +32°C° 0 mm 4 mps 723 mmHg 55%
    16:00 +29°C° 0 mm 4 mps 723 mmHg 59%
    17:00 +28°C° 0 mm 4 mps 722 mmHg 64%
    18:00 +27°C° 0 mm 4 mps 722 mmHg 68%
    19:00 +26°C° 0 mm 5 mps 722 mmHg 71%
    20:00 +25°C° 0 mm 5 mps 723 mmHg 75%
    21:00 +23°C° 0 mm 5 mps 723 mmHg 78%
    22:00 +22°C° 0 mm 4 mps 723 mmHg 80%
    23:00 +22°C° 0 mm 4 mps 724 mmHg 82%

    Tomorrow, 22 November, Thursday

    Time Temperature Precipitation Wind Pressure Humidity
    00:00 +21°C° 0 mm 4 mps 724 mmHg 83%
    01:00 +21°C° 0 mm 4 mps 723 mmHg 85%
    02:00 +21°C° 0 mm 4 mps 723 mmHg 86%
    03:00 +21°C° 0 mm 4 mps 722 mmHg 87%
    04:00 +21°C° 0 mm 4 mps 723 mmHg 87%
    05:00 +21°C° 0 mm 4 mps 723 mmHg 87%
    06:00 +21°C° 0 mm 4 mps 723 mmHg 87%
    07:00 +22°C° 0 mm 4 mps 723 mmHg 83%
    08:00 +25°C° 0 mm 4 mps 724 mmHg 79%
    09:00 +26°C° 0 mm 4 mps 724 mmHg 75%
    10:00 +27°C° 0.1 mm 3 mps 724 mmHg 70%
    11:00 +29°C° 0.1 mm 3 mps 724 mmHg 66%
    12:00 +30°C° 0.1 mm 3 mps 724 mmHg 61%
    13:00 +31°C° 0.4 mm 3 mps 723 mmHg 60%
    14:00 +31°C° 0.4 mm 3 mps 722 mmHg 59%
    15:00 +31°C° 0.4 mm 3 mps 721 mmHg 58%
    16:00 +31°C° 0.1 mm 3 mps 721 mmHg 61%
    17:00 +30°C° 0.1 mm 3 mps 721 mmHg 65%
    18:00 +29°C° 0.1 mm 2 mps 721 mmHg 68%
    19:00 +28°C° 0 mm 2 mps 721 mmHg 73%
    20:00 +26°C° 0 mm 2 mps 722 mmHg 79%
    21:00 +25°C° 0 mm 2 mps 722 mmHg 84%
    22:00 +25°C° 0 mm 2 mps 722 mmHg 85%
    23:00 +24°C° 0 mm 2 mps 722 mmHg 86%

    Day after tomorrow, 23 November, Friday

    Time Temperature Precipitation Wind Pressure Humidity
    00:00 +24°C° 0 mm 3 mps 722 mmHg 86%
    01:00 +24°C° 0 mm 3 mps 722 mmHg 88%
    02:00 +23°C° 0 mm 2 mps 721 mmHg 90%
    03:00 +23°C° 0 mm 2 mps 721 mmHg 91%
    04:00 +23°C° 0 mm 2 mps 721 mmHg 92%
    05:00 +23°C° 0 mm 2 mps 721 mmHg 92%
    06:00 +21°C° 0 mm 2 mps 721 mmHg 93%
    07:00 +24°C° 0 mm 2 mps 722 mmHg 85%
    08:00 +27°C° 0 mm 2 mps 722 mmHg 76%
    09:00 +29°C° 0 mm 3 mps 723 mmHg 68%
    10:00 +30°C° 0.3 mm 3 mps 723 mmHg 64%
    11:00 +31°C° 0.3 mm 3 mps 722 mmHg 61%
    12:00 +33°C° 0.3 mm 3 mps 722 mmHg 57%
    13:00 +33°C° 0.3 mm 3 mps 721 mmHg 55%
    14:00 +34°C° 0.3 mm 2 mps 721 mmHg 54%
    15:00 +34°C° 0.3 mm 2 mps 720 mmHg 53%
    16:00 +32°C° 0.7 mm 2 mps 720 mmHg 60%
    17:00 +30°C° 0.7 mm 2 mps 719 mmHg 66%
    18:00 +29°C° 0.7 mm 2 mps 719 mmHg 73%
    19:00 +28°C° 1.5 mm 2 mps 720 mmHg 78%
    20:00 +27°C° 1.5 mm 2 mps 720 mmHg 83%
    21:00 +25°C° 1.5 mm 2 mps 720 mmHg 89%
    22:00 +25°C° 3.5 mm 2 mps 720 mmHg 89%
    23:00 +25°C° 3.5 mm 2 mps 720 mmHg 90%

    24 November, Saturday

    Time Temperature Precipitation Wind Pressure Humidity
    00:00 +25°C° 3.5 mm 2 mps 721 mmHg 90%
    01:00 +24°C° 1 mm 2 mps 720 mmHg 91%
    02:00 +24°C° 1 mm 2 mps 720 mmHg 91%
    03:00 +24°C° 1 mm 3 mps 719 mmHg 92%
    04:00 +24°C° 1.1 mm 3 mps 719 mmHg 92%
    05:00 +24°C° 1.1 mm 3 mps 719 mmHg 92%
    06:00 +22°C° 1.1 mm 3 mps 720 mmHg 92%
    07:00 +23°C° 0.9 mm 4 mps 720 mmHg 91%
    08:00 +23°C° 0.9 mm 4 mps 720 mmHg 89%
    09:00 +25°C° 0.9 mm 4 mps 721 mmHg 87%
    10:00 +25°C° 1.8 mm 4 mps 720 mmHg 89%
    11:00 +25°C° 1.8 mm 4 mps 720 mmHg 90%
    12:00 +23°C° 1.8 mm 4 mps 720 mmHg 91%
    13:00 +23°C° 1.4 mm 4 mps 719 mmHg 91%
    14:00 +23°C° 1.4 mm 4 mps 718 mmHg 92%
    15:00 +23°C° 1.4 mm 5 mps 718 mmHg 92%
    16:00 +23°C° 0.9 mm 4 mps 717 mmHg 93%
    17:00 +23°C° 0.9 mm 4 mps 717 mmHg 94%
    18:00 +22°C° 0.9 mm 4 mps 716 mmHg 94%
    19:00 +22°C° 1.9 mm 5 mps 717 mmHg 94%
    20:00 +22°C° 1.9 mm 5 mps 717 mmHg 95%
    21:00 +22°C° 1.9 mm 5 mps 717 mmHg 95%
    22:00 +23°C° 1.5 mm 5 mps 717 mmHg 95%
    23:00 +23°C° 1.5 mm 5 mps 717 mmHg 94%

    25 November, Sunday

    Time Temperature Precipitation Wind Pressure Humidity
    00:00 +23°C° 1.5 mm 6 mps 716 mmHg 94%
    01:00 +23°C° 0.7 mm 5 mps 716 mmHg 94%
    02:00 +23°C° 0.7 mm 5 mps 716 mmHg 94%
    03:00 +23°C° 0.7 mm 4 mps 715 mmHg 95%
    04:00 +22°C° 0.2 mm 4 mps 715 mmHg 95%
    05:00 +22°C° 0.2 mm 4 mps 715 mmHg 96%
    06:00 +22°C° 0.2 mm 3 mps 716 mmHg 96%
    07:00 +22°C° 0.1 mm 4 mps 716 mmHg 94%
    08:00 +23°C° 0.1 mm 4 mps 716 mmHg 92%
    09:00 +23°C° 0.1 mm 4 mps 717 mmHg 91%
    10:00 +25°C° 0.1 mm 4 mps 717 mmHg 87%
    11:00 +26°C° 0.1 mm 5 mps 717 mmHg 83%
    12:00 +26°C° 0.1 mm 5 mps 716 mmHg 79%
    13:00 +27°C° 0.1 mm 5 mps 716 mmHg 77%
    14:00 +27°C° 0.1 mm 5 mps 716 mmHg 76%
    15:00 +28°C° 0.1 mm 4 mps 715 mmHg 74%
    16:00 +28°C° 0.1 mm 4 mps 716 mmHg 75%
    17:00 +27°C° 0.1 mm 3 mps 716 mmHg 75%
    18:00 +27°C° 0.1 mm 2 mps 716 mmHg 76%
    19:00 +26°C° 0 mm 2 mps 717 mmHg 78%
    20:00 +24°C° 0 mm 2 mps 717 mmHg 81%
    21:00 +23°C° 0 mm 2 mps 718 mmHg 83%
    22:00 +21°C° 0 mm 2 mps 718 mmHg 84%
    23:00 +21°C° 0 mm 2 mps 718 mmHg 84%

    26 November, Monday

    Time Temperature Precipitation Wind Pressure Humidity
    00:00 +20°C° 0 mm 2 mps 718 mmHg 85%
    01:00 +20°C° 0 mm 2 mps 718 mmHg 86%
    02:00 +20°C° 0 mm 2 mps 718 mmHg 87%
    03:00 +19°C° 0 mm 2 mps 718 mmHg 89%
    04:00 +19°C° 0 mm 2 mps 718 mmHg 89%
    05:00 +19°C° 0 mm 2 mps 718 mmHg 89%
    06:00 +19°C° 0 mm 2 mps 719 mmHg 89%
    07:00 +21°C° 0 mm 2 mps 719 mmHg 82%
    08:00 +24°C° 0 mm 2 mps 720 mmHg 74%
    09:00 +26°C° 0 mm 2 mps 720 mmHg 66%
    10:00 +29°C° 0 mm 1 mps 720 mmHg 61%
    11:00 +31°C° 0 mm 1 mps 720 mmHg 55%
    12:00 +33°C° 0 mm 1 mps 720 mmHg 50%
    13:00 +33°C° 0 mm 1 mps 719 mmHg 48%
    14:00 +33°C° 0 mm 1 mps 719 mmHg 47%
    15:00 +33°C° 0 mm 1 mps 718 mmHg 45%
    16:00 +32°C° 0 mm 1 mps 718 mmHg 51%
    17:00 +31°C° 0 mm 1 mps 718 mmHg 57%
    18:00 +30°C° 0 mm 1 mps 718 mmHg 62%
    19:00 +28°C° 0 mm 1 mps 718 mmHg 67%
    20:00 +27°C° 0 mm 2 mps 718 mmHg 71%
    21:00 +26°C° 0 mm 2 mps 719 mmHg 76%
    22:00 +25°C° 0.1 mm 3 mps 719 mmHg 78%
    23:00 +24°C° 0.1 mm 3 mps 719 mmHg 81%
    Show more